Weather History for Syracuse, NY

Change the Weather History Date:

Wednesday, February 5, 2014

  Actual Average Record
Temperature  
Mean Temperature 20 °F 24 °F  
Max Temperature 26 °F 32 °F 55 °F (1962)
Min Temperature 13 °F 16 °F -19 °F (1918)
Degree Days  
Heating Degree Days 45 41  
Month to date heating degree days 189 205  
Since 1 July heating degree days 4055 3941  
Cooling Degree Days 0 0  
Month to date cooling degree days 0 0  
Year to date cooling degree days 0 0  
Moisture  
Dew Point 19 °F    
Average Humidity 85    
Maximum Humidity 96    
Minimum Humidity 74    
Precipitation  
Precipitation 0.91 in 0.07 in 0.91 in (2014)
Month to date precipitation 1.09 0.35  
Year to date precipitation 3.29 2.85  
Snow  
Snow 10.00 in 1.00 in 5.60 in (1995)
Month to date snowfall 10.3 5.0  
Since 1 July snowfall 78.9 81.6  
Snow Depth 6.00 in    
Sea Level Pressure  
Sea Level Pressure 29.99 in    
Wind  
Wind Speed 10 mph (NE)    
Max Wind Speed 18 mph    
Max Gust Speed 24 mph    
Visibility 2 miles    
Events Fog , Snow    
T = Trace of Precipitation, MM = Missing Value Source: NWS Daily Summary

Daily Weather History Graph

Daily Weather History Graph

Search for Another Location

Airport:

Trip Planner

Search our weather history database for the weather conditions in past years. The results will help you decide how hot, cold, wet, or windy it might be!

Date:

Astronomy

Feb. 05, 2014 Rise Set
Actual Time 7:15 AM EST 5:22 PM EST
Civil Twilight 6:45 AM EST 5:52 PM EST
Nautical Twilight 6:11 AM EST 6:25 PM EST
Astronomical Twilight 5:38 AM EST 6:59 PM EST
Moon 10:17 AM EST (2/5) No Moon Set
Length of Visible Light 11h 06m
Length of Day
10h 07m
Waxing Crescent, 39% of the Moon is Illuminated
Feb 5
Waxing Crescent
Feb 6
First Quarter
Feb 14
Full
Feb 22
Last Quarter
Mar 1
New

Hourly Weather History & Observations

Time (EST) Temp. Windchill Dew Point Humidity Pressure Visibility Wind Dir Wind Speed Gust Speed Precip Events Conditions
12:11 AM 26.6 °F - 17.6 °F 69% 30.28 in 10.0 mi Calm Calm - N/A   Overcast
12:46 AM 24.8 °F 20.5 °F 17.6 °F 74% 30.26 in 2.5 mi NNE 3.5 mph - 0.00 in Snow Light Snow
12:52 AM 24.8 °F 19.1 °F 17.6 °F 74% 30.26 in 1.2 mi NE 4.6 mph - 0.00 in Snow Light Snow
12:54 AM 24.1 °F 19.7 °F 18.0 °F 77% 30.27 in 1.2 mi NE 3.5 mph - 0.00 in Snow Light Snow
1:15 AM 23.0 °F 17.0 °F 19.4 °F 86% 30.23 in 1.0 mi ENE 4.6 mph - 0.01 in Snow Light Snow
1:23 AM 23.0 °F 18.4 °F 19.4 °F 86% 30.22 in 1.2 mi ENE 3.5 mph - 0.02 in Snow Light Snow
1:38 AM 23.0 °F 17.0 °F 19.4 °F 86% 30.21 in 2.0 mi ENE 4.6 mph - 0.02 in Snow Light Snow
1:50 AM 23.0 °F 17.0 °F 19.4 °F 86% 30.21 in 1.5 mi East 4.6 mph - 0.03 in Snow Light Snow
1:54 AM 23.0 °F 17.0 °F 19.9 °F 88% 30.22 in 1.2 mi East 4.6 mph - 0.03 in Snow Light Snow
2:05 AM 23.0 °F 17.0 °F 21.2 °F 93% 30.21 in 0.8 mi East 4.6 mph - 0.01 in Snow Light Snow
2:54 AM 23.0 °F 14.7 °F 21.0 °F 92% 30.19 in 0.8 mi East 6.9 mph - 0.07 in Snow Light Snow
3:16 AM 23.0 °F 15.8 °F 19.4 °F 86% 30.15 in 1.0 mi ENE 5.8 mph - 0.02 in Snow Light Snow
3:30 AM 23.0 °F 15.8 °F 19.4 °F 86% 30.15 in 0.8 mi ENE 5.8 mph - 0.04 in Snow Light Snow
3:54 AM 23.0 °F 15.8 °F 21.0 °F 92% 30.14 in 1.5 mi ENE 5.8 mph - 0.06 in Snow Light Snow
4:54 AM 23.0 °F 17.0 °F 21.0 °F 92% 30.14 in 0.8 mi NNE 4.6 mph - 0.05 in Snow Light Snow
5:54 AM 23.0 °F 13.1 °F 21.0 °F 92% 30.09 in 0.8 mi East 9.2 mph - 0.09 in Snow Light Snow
5:56 AM 23.0 °F 14.7 °F 21.2 °F 93% 30.08 in 1.0 mi East 6.9 mph - 0.01 in Snow Light Snow
6:35 AM 23.0 °F 13.1 °F 19.4 °F 86% 30.05 in 1.8 mi ENE 9.2 mph - 0.03 in Snow Light Snow
6:54 AM 23.0 °F 13.9 °F 21.0 °F 92% 30.05 in 1.0 mi ENE 8.1 mph - 0.04 in Snow Light Snow
7:26 AM 23.0 °F 13.9 °F 19.4 °F 86% 30.00 in 1.5 mi ENE 8.1 mph - 0.02 in Snow Light Snow
7:54 AM 23.0 °F 13.1 °F 19.9 °F 88% 30.00 in 0.8 mi ENE 9.2 mph - 0.03 in Snow Light Snow
8:04 AM 23.0 °F 11.1 °F 19.4 °F 86% 29.98 in 0.8 mi ENE 12.7 mph - 0.01 in Snow Light Snow
8:22 AM 23.0 °F 11.7 °F 19.4 °F 86% 29.95 in 1.0 mi ENE 11.5 mph - 0.01 in Snow Light Snow
8:27 AM 23.0 °F 11.1 °F 19.4 °F 86% 29.95 in 2.0 mi ENE 12.7 mph - 0.01 in Snow Light Snow
8:38 AM 23.0 °F 11.7 °F 19.4 °F 86% 29.95 in 5.0 mi ENE 11.5 mph 20.7 mph 0.01 in Snow Light Snow
8:54 AM 23.0 °F 13.1 °F 19.9 °F 88% 29.96 in 3.0 mi ENE 9.2 mph - 0.02 in Snow Light Snow
9:00 AM 23.0 °F 11.7 °F 19.4 °F 86% 29.93 in 1.8 mi ENE 11.5 mph - 0.00 in Snow Light Snow
9:15 AM 23.0 °F 10.1 °F 19.4 °F 86% 29.91 in 1.5 mi ENE 15.0 mph - 0.00 in Snow Light Snow
9:22 AM 24.8 °F 14.0 °F 21.2 °F 86% 29.91 in 1.5 mi East 11.5 mph - 0.00 in Snow Light Snow
9:25 AM 24.8 °F - 19.4 °F 80% 29.90 in 2.0 mi North - - 0.00 in Snow Light Snow
9:31 AM 25.3 °F 16.0 °F 20.5 °F 82% 29.90 in 3.0 mi East 9.2 mph - N/A Snow Light Snow
9:50 AM 25.5 °F 13.8 °F 19.2 °F 77% 29.87 in 2.5 mi East 13.8 mph - N/A Snow Light Snow
10:15 AM 27.0 °F 15.2 °F 20.7 °F 77% 29.84 in 1.8 mi East 15.0 mph - N/A Snow Light Snow
10:54 AM 30.2 °F 20.2 °F 23.2 °F 75% 29.79 in 1.0 mi East 12.7 mph - N/A Snow Light Snow
11:26 AM 26.6 °F 16.8 °F 20.7 °F 78% 29.77 in 0.8 mi East 10.4 mph - N/A Snow Light Snow
11:54 AM 26.4 °F 18.0 °F 21.6 °F 82% 29.79 in 0.5 mi ENE 8.1 mph - N/A Snow Light Snow
12:54 PM 25.9 °F 18.2 °F 22.5 °F 87% 29.79 in 0.2 mi NE 6.9 mph - N/A Fog , Snow Snow
1:05 PM 25.9 °F 15.3 °F 22.5 °F 87% 29.77 in 0.1 mi East 11.5 mph - N/A Fog , Snow Heavy Snow
1:16 PM 27.5 °F 16.8 °F 23.9 °F 86% 29.75 in 0.1 mi East 12.7 mph - N/A Fog , Snow Heavy Snow
1:50 PM 27.9 °F 21.5 °F 24.6 °F 88% 29.73 in 0.5 mi NE 5.8 mph - N/A Fog , Snow Light Snow
2:23 PM 28.4 °F 23.3 °F 23.5 °F 82% 29.72 in 1.5 mi ENE 4.6 mph - N/A Snow Light Snow
2:54 PM 27.5 °F 22.2 °F 23.7 °F 86% 29.72 in 1.8 mi East 4.6 mph - N/A Snow Light Snow
3:54 PM 29.7 °F 23.7 °F 25.3 °F 84% 29.72 in 1.0 mi NNE 5.8 mph - N/A Snow Light Snow
4:15 PM 27.7 °F 18.8 °F 24.1 °F 86% 29.74 in 0.5 mi WNW 9.2 mph - N/A Fog , Snow Snow
4:46 PM 23.0 °F 9.6 °F 21.2 °F 93% 29.77 in 0.8 mi NW 16.1 mph - N/A Snow Light Snow
5:05 PM 21.2 °F 7.8 °F 19.4 °F 93% 29.78 in 0.8 mi NNW 15.0 mph 24.2 mph 0.00 in Snow Light Snow
5:54 PM 19.9 °F 6.7 °F 17.1 °F 89% 29.85 in 0.8 mi NNW 13.8 mph - 0.01 in Snow Light Snow
6:22 PM 17.6 °F 5.0 °F 15.8 °F 93% 29.87 in 1.0 mi NW 11.5 mph - 0.01 in Snow Light Snow
6:29 PM 17.6 °F 5.0 °F 15.8 °F 93% 29.88 in 1.5 mi NW 11.5 mph - 0.01 in Snow Light Snow
6:39 PM 17.6 °F 5.7 °F 15.8 °F 93% 29.89 in 1.5 mi NW 10.4 mph - 0.01 in Snow Light Snow
6:54 PM 17.1 °F 5.0 °F 15.1 °F 92% 29.91 in 1.5 mi NW 10.4 mph - 0.01 in Snow Light Snow
6:59 PM 17.6 °F 6.4 °F 14.0 °F 86% 29.90 in 2.5 mi NW 9.2 mph - 0.00 in Snow Light Snow
7:54 PM 17.1 °F 5.0 °F 12.9 °F 84% 29.97 in 2.5 mi NNW 10.4 mph 19.6 mph 0.01 in Snow Light Snow
8:24 PM 17.6 °F 3.7 °F 12.2 °F 79% 29.99 in 3.0 mi NW 13.8 mph 20.7 mph 0.00 in Snow Light Snow
8:54 PM 16.0 °F 1.7 °F 12.0 °F 84% 30.04 in 3.0 mi NNW 13.8 mph - 0.00 in Snow Light Snow
9:54 PM 14.0 °F 0.5 °F 9.0 °F 80% 30.10 in 10.0 mi NNW 11.5 mph - 0.00 in   Mostly Cloudy
10:21 PM 14.0 °F -3.0 °F 10.4 °F 86% 30.12 in 5.0 mi NW 18.4 mph 23.0 mph 0.00 in Snow Light Snow
10:54 PM 12.9 °F -3.9 °F 8.1 °F 81% 30.16 in 9.0 mi NNW 17.3 mph 23.0 mph 0.00 in Snow Light Snow
10:56 PM 12.2 °F -5.3 °F 6.8 °F 79% 30.15 in 9.0 mi NNW 18.4 mph 23.0 mph 0.00 in Snow Light Snow
11:54 PM 12.9 °F 3.8 °F 7.0 °F 77% 30.18 in 9.0 mi NNW 5.8 mph - 0.00 in Snow Light Snow